FENGYUN 4A

Last updated on Thu Oct 30 2025 00:02:23 GMT+0000 (Coordinated Universal Time)

1 41882U 16077A 25302.51495587 -.00000346 00000+0 00000+0 0 9992 2 41882 1.7320 82.7866 0004728 149.7245 114.5690 1.00280838 32616
UTC large
Height (km)
Speed (km/s)
/
Latitude / Longitude
Inclination (degrees)
Orbital Period (minutes)
Azimuth
Elevation
Range (km)
Doppler Factor

Next 0 passes for location: London (51.5072 / 0.1276)

Sorry there are no passes over London.